[[{"header":{"parameterUnit":"m.s-1","parameterCategory":1,"la1":30.2991,"la2":30.254,"lo1":-89.0895,"lo2":-89.0444,"dy":0.0017,"dx":0.0017,"nx":28,"ny":28,"refTime":"2023-07-30T21:00:00:Z","depth":0,"parameterNumber":2,"parameterNumberName":"U-component_of_WINDS"},"data":[0,0,0,0,0,0,0,0,0,0,0,0,0,0,0,0,0,0,0,0,0,0,0,0,0,0,0,0,0,0,0,0,0,0,0,0,0,0,0,0,0,0,0,0,0,0,0,0,0,0,0,0,0,0,0,0,0,0,1.6876,1.6876,0,1.6865,1.6865,1.6865,1.6833,1.6832,1.6831,1.6831,1.6819,1.6819,1.6819,0,0,0,0,0,0,0,0,0,0,0,0,0,1.6872,1.6872,1.6877,1.6876,1.6876,1.6865,1.6865,1.6865,1.6833,1.6832,1.6831,1.6831,1.6818,1.6819,1.6819,0,0,0,0,0,0,0,0,0,0,0,0,0,1.6868,1.6872,1.6877,1.6859,1.6857,1.6865,1.6865,1.6865,1.6833,1.6832,1.6831,1.683,1.6818,1.6819,1.6819,1.6843,0,0,1.6821,1.6821,0,0,0,0,0,0,0,0,1.6869,1.6869,1.6862,1.686,1.6858,1.6849,1.6858,1.6857,1.6833,1.6842,1.6831,1.683,1.683,1.6829,1.6829,1.6842,1.6841,1.6821,1.6821,1.6821,1.6821,0,0,0,0,0,0,0,1.6869,1.6869,1.6872,1.6862,1.686,1.6852,1.685,1.6858,1.6842,1.6841,1.6839,1.6838,1.6828,1.6829,1.6829,1.6841,1.6821,1.6821,1.6821,1.6822,1.6873,1.6875,0,0,0,0,0,0,1.6872,1.6869,1.6872,1.6872,1.6861,1.6853,1.6851,1.6853,1.6842,1.6839,1.6839,1.6837,1.6828,1.6828,1.6828,1.6855,1.6821,1.6822,1.6822,1.6872,1.6874,1.6875,0,0,0,0,0,0,1.6872,1.6872,1.6873,1.687,1.6869,1.6854,1.6857,1.6854,1.6854,1.684,1.6837,1.6842,1.6828,1.6827,1.6839,1.6854,1.6822,1.6822,1.6871,1.6873,1.6874,1.6908,0,0,0,0,0,0,1.6872,1.6872,1.6881,1.687,1.687,1.6884,1.6858,1.6854,1.6855,1.6852,1.6842,1.684,1.6827,1.6839,1.684,1.6854,1.6823,1.687,1.6872,1.6874,1.6906,1.6911,1.6915,0,0,0,0,0,1.6872,1.6891,1.6881,1.6882,1.688,1.6885,1.6885,1.687,1.6856,1.6865,1.6856,1.684,1.6852,1.684,1.6841,1.6856,1.6869,1.6871,1.6874,1.6904,1.691,1.6915,0,0,0,0,0,0,1.6903,1.6889,1.6878,1.6895,1.6891,1.688,1.689,1.6877,1.6877,1.6874,1.6855,1.6854,1.6868,1.6863,1.685,1.6878,1.6858,1.6861,1.6881,1.6886,1.6891,1.6892,1.6823,0,0,0,0,0,1.6912,1.6917,1.6905,1.692,1.6919,1.6905,1.6907,1.6896,1.6891,1.689,1.6882,1.6878,1.6881,1.6884,1.6886,1.6905,1.6903,1.6916,1.6921,1.6925,1.6927,1.6937,1.6943,1.6883,1.6883,1.6883,0,0,1.693,1.6923,1.6928,1.6927,1.6923,1.6929,1.6904,1.6911,1.6916,1.6891,1.6902,1.6896,1.6891,1.6907,1.6913,1.6903,1.6943,1.6928,1.6931,1.6931,1.6941,1.6946,1.6951,1.6885,1.6884,1.6884,0,0,1.6967,1.6962,1.6974,1.6971,1.6966,1.6957,1.696,1.695,1.6946,1.6956,1.6938,1.6943,1.6949,1.6946,1.6945,1.6982,1.6968,1.6984,1.7008,1.7018,1.7023,1.7027,1.704,1.7045,1.6986,1.6986,1.6986,0,1.699,1.6998,1.6983,1.6991,1.6992,1.697,1.6983,1.6981,1.6976,1.6977,1.6965,1.6973,1.6968,1.6983,1.6992,1.6992,1.6995,1.6984,1.7024,1.7028,1.7031,1.7044,1.7049,1.6988,1.6988,1.6988,1.6988,0,1.7027,1.7034,1.7044,1.7041,1.7043,1.7053,1.704,1.7043,1.7033,1.7025,1.7036,1.703,1.703,1.7033,1.7023,1.7047,1.7041,1.7027,1.7006,1.7039,1.7051,1.7055,1.6991,1.699,1.699,1.6989,0,0,1.7082,1.7071,1.7075,1.7073,1.7067,1.7071,1.7081,1.7082,1.7086,1.7084,1.7092,1.7098,1.7085,1.7085,1.7074,1.7083,1.7113,1.7068,1.7067,1.7076,1.714,1.715,1.7156,1.7103,1.7104,1.7105,1.714,0,1.7116,1.7133,1.7119,1.7138,1.7144,1.7125,1.7133,1.713,1.7124,1.7128,1.712,1.7125,1.7107,1.7107,1.7115,1.7107,1.7125,1.7105,1.7111,1.7111,1.7112,1.7162,1.7172,1.7206,1.7145,1.7145,1.7146,0,1.7158,1.7158,1.7178,1.7171,1.7173,1.7181,1.7181,1.7185,1.7182,1.7176,1.7176,1.7163,1.7173,1.7153,1.7166,1.7153,1.7155,1.7151,1.7152,1.7152,1.713,1.7162,1.7216,1.7221,1.7153,1.7152,1.7152,0,1.7196,1.7201,1.7214,1.7213,1.7205,1.7211,1.7208,1.7203,1.7205,1.7206,1.7207,1.7208,1.7209,1.721,1.7198,1.7185,1.7213,1.7193,1.7209,1.7209,1.7215,1.7215,1.727,1.7217,1.7217,1.7217,1.7217,0,1.7235,1.7248,1.7231,1.7239,1.7253,1.7238,1.7252,1.7247,1.7243,1.725,1.7233,1.7239,1.7223,1.7228,1.7219,1.7231,1.7232,1.7227,1.7225,1.7229,1.7229,1.7229,1.7226,1.7218,1.7218,1.7218,1.7217,0,1.7279,1.7268,1.7281,1.7272,1.727,1.7281,1.7274,1.7281,1.7273,1.7282,1.7283,1.7271,1.7276,1.7265,1.7268,1.7262,1.728,1.7273,1.7281,1.7279,1.7296,1.7294,1.7352,1.7359,1.7302,1.7303,1.7304,0,1.7304,1.7314,1.7307,1.731,1.7308,1.7314,1.7315,1.7302,1.7304,1.7301,1.7309,1.7313,1.7315,1.7324,1.7316,1.7318,1.7312,1.7332,1.7312,1.7316,1.7312,1.7311,1.7312,1.7336,1.7337,1.7337,1.7338,0,1.7351,1.7345,1.7349,1.7351,1.7354,1.7354,1.7354,1.7358,1.7343,1.7347,1.7352,1.7354,1.7358,1.7362,1.7363,1.7359,1.7346,1.7344,1.7348,1.7352,1.7356,1.7354,1.7292,1.7343,1.7342,1.7342,1.7341,1.7341,1.7386,1.7394,1.7391,1.7395,1.7394,1.7394,1.74,1.7394,1.7398,1.74,1.7392,1.7399,1.7396,1.7396,1.7394,1.7399,1.739,1.7396,1.7397,1.7399,1.7401,1.7356,1.74,1.7399,1.7399,1.7399,1.7399,0,1.7432,1.7429,1.7433,1.7433,1.7437,1.7425,1.7424,1.7428,1.7435,1.7433,1.7436,1.7442,1.7446,1.7439,1.7442,1.7448,1.7442,1.7449,1.7448,1.7448,1.7409,1.7406,1.7454,1.7454,1.7454,1.7454,1.7454,1.7454,1.7456,1.7469,1.7463,1.7475,1.7472,1.7479,1.7479,1.7479,1.7478,1.7486,1.7489,1.7485,1.7481,1.7484,1.7487,1.7485,1.7486,1.7496,1.7491,1.7456,1.745,1.7445,1.7442,1.7496,1.7496,1.7529,1.7529,1.7529]},{"header":{"parameterUnit":"m.s-1","parameterCategory":1,"la1":30.2991,"la2":30.254,"lo1":-89.0895,"lo2":-89.0444,"dy":0.0017,"dx":0.0017,"nx":28,"ny":28,"refTime":"2023-07-30T21:00:00:Z","depth":0,"parameterNumber":3,"parameterNumberName":"V-component_of_WINDS"},"data":[0,0,0,0,0,0,0,0,0,0,0,0,0,0,0,0,0,0,0,0,0,0,0,0,0,0,0,0,0,0,0,0,0,0,0,0,0,0,0,0,0,0,0,0,0,0,0,0,0,0,0,0,0,0,0,0,0,0,-2.6881,-2.6882,0,-2.6942,-2.6943,-2.6943,-2.6918,-2.6917,-2.6915,-2.6914,-2.6972,-2.6975,-2.6978,0,0,0,0,0,0,0,0,0,0,0,0,0,-2.674,-2.6743,-2.6881,-2.6882,-2.6883,-2.6942,-2.6943,-2.6943,-2.6918,-2.6917,-2.6915,-2.6913,-2.6971,-2.6975,-2.6978,0,0,0,0,0,0,0,0,0,0,0,0,0,-2.6801,-2.6744,-2.6881,-2.6877,-2.6878,-2.6942,-2.6943,-2.6944,-2.6919,-2.6917,-2.6914,-2.6912,-2.697,-2.6974,-2.6978,-2.7048,0,0,-2.6992,-2.6994,0,0,0,0,0,0,0,0,-2.6798,-2.6806,-2.6877,-2.6878,-2.6878,-2.692,-2.6914,-2.6979,-2.6919,-2.6903,-2.6914,-2.6911,-2.6956,-2.6962,-2.6978,-2.7051,-2.7053,-2.6992,-2.6995,-2.6997,-2.6998,0,0,0,0,0,0,0,-2.6793,-2.6803,-2.6905,-2.6878,-2.6879,-2.6872,-2.6878,-2.6926,-2.6941,-2.6904,-2.6903,-2.691,-2.6956,-2.6974,-2.6979,-2.7054,-2.6992,-2.6996,-2.6998,-2.7,-2.7188,-2.7191,0,0,0,0,0,0,-2.679,-2.68,-2.6903,-2.6907,-2.6832,-2.6876,-2.6883,-2.6909,-2.694,-2.6943,-2.6912,-2.6909,-2.6967,-2.6974,-2.6981,-2.7065,-2.6997,-2.7001,-2.7003,-2.7186,-2.7189,-2.7192,0,0,0,0,0,0,-2.6787,-2.6799,-2.6901,-2.6853,-2.6865,-2.6881,-2.691,-2.6911,-2.6929,-2.6946,-2.6948,-2.6927,-2.6966,-2.6975,-2.7032,-2.7066,-2.7003,-2.7006,-2.7183,-2.7187,-2.719,-2.7233,0,0,0,0,0,0,-2.6783,-2.6798,-2.6825,-2.6854,-2.6868,-2.6952,-2.6912,-2.6914,-2.6937,-2.6933,-2.6961,-2.6964,-2.6965,-2.7026,-2.7036,-2.7071,-2.701,-2.718,-2.7185,-2.7189,-2.7229,-2.7238,-2.7246,0,0,0,0,0,-2.6778,-2.6834,-2.6827,-2.6839,-2.6903,-2.6954,-2.6962,-2.6963,-2.6939,-2.6967,-2.6978,-2.6963,-2.7061,-2.7032,-2.7044,-2.708,-2.7178,-2.7184,-2.7189,-2.7225,-2.7236,-2.7245,0,0,0,0,0,0,-2.6807,-2.6838,-2.683,-2.6897,-2.6924,-2.695,-2.6984,-2.6975,-2.7007,-2.7002,-2.7001,-2.7007,-2.7067,-2.7079,-2.7046,-2.715,-2.7116,-2.7124,-2.7139,-2.715,-2.7158,-2.7153,-2.7013,0,0,0,0,0,-2.6822,-2.6862,-2.6886,-2.6943,-2.6957,-2.6968,-2.699,-2.699,-2.7016,-2.7026,-2.7042,-2.7067,-2.7104,-2.7128,-2.7162,-2.7231,-2.7236,-2.7262,-2.727,-2.7277,-2.7284,-2.7321,-2.7333,-2.7209,-2.7209,-2.7209,0,0,-2.6852,-2.6873,-2.6898,-2.6949,-2.6969,-2.701,-2.6977,-2.7022,-2.7052,-2.7032,-2.7088,-2.7101,-2.7129,-2.7192,-2.7221,-2.7204,-2.7319,-2.7284,-2.7289,-2.7292,-2.7328,-2.7339,-2.735,-2.7213,-2.7212,-2.7212,0,0,-2.6927,-2.6948,-2.6998,-2.7019,-2.7051,-2.7058,-2.7071,-2.7099,-2.7107,-2.7163,-2.715,-2.7185,-2.7248,-2.7269,-2.7287,-2.7373,-2.736,-2.7384,-2.7427,-2.7464,-2.7474,-2.7482,-2.7512,-2.7523,-2.7391,-2.7391,-2.7391,0,-2.696,-2.7022,-2.7024,-2.707,-2.7093,-2.708,-2.713,-2.715,-2.7191,-2.7206,-2.7188,-2.7268,-2.7285,-2.7354,-2.7375,-2.7391,-2.7404,-2.738,-2.7472,-2.7481,-2.7489,-2.7518,-2.7529,-2.7393,-2.7393,-2.7393,-2.7393,0,-2.706,-2.7104,-2.714,-2.7182,-2.7209,-2.7257,-2.7266,-2.7292,-2.729,-2.7299,-2.7356,-2.7378,-2.7417,-2.7433,-2.743,-2.7501,-2.749,-2.7472,-2.7438,-2.7503,-2.753,-2.7541,-2.7397,-2.7396,-2.7396,-2.7395,0,0,-2.7154,-2.7198,-2.7211,-2.7231,-2.7265,-2.7298,-2.7346,-2.7386,-2.7408,-2.7437,-2.7476,-2.7531,-2.7515,-2.7537,-2.7536,-2.7568,-2.7634,-2.7546,-2.7546,-2.7561,-2.7714,-2.7727,-2.774,-2.7626,-2.7629,-2.763,-2.7712,0,-2.7232,-2.7316,-2.7321,-2.7397,-2.7437,-2.7426,-2.7467,-2.7492,-2.7503,-2.7537,-2.7548,-2.7587,-2.7563,-2.7576,-2.7607,-2.7619,-2.7665,-2.7614,-2.7662,-2.7663,-2.7654,-2.7754,-2.7768,-2.7843,-2.7722,-2.7724,-2.7725,0,-2.7333,-2.7367,-2.7448,-2.7478,-2.7495,-2.7532,-2.757,-2.7603,-2.7632,-2.7637,-2.7662,-2.7657,-2.7705,-2.767,-2.7736,-2.7701,-2.7721,-2.773,-2.7733,-2.7737,-2.7698,-2.776,-2.7867,-2.7879,-2.7742,-2.7741,-2.7739,0,-2.7393,-2.7459,-2.7516,-2.7533,-2.757,-2.7596,-2.7612,-2.7639,-2.7663,-2.7696,-2.7711,-2.7748,-2.7768,-2.7797,-2.7801,-2.7776,-2.7867,-2.7833,-2.7872,-2.7872,-2.7891,-2.7889,-2.8003,-2.7905,-2.7905,-2.7905,-2.7904,0,-2.7479,-2.7528,-2.7544,-2.7579,-2.7634,-2.7639,-2.7693,-2.7707,-2.7732,-2.7769,-2.7761,-2.7795,-2.78,-2.7836,-2.784,-2.7894,-2.7903,-2.7908,-2.7908,-2.7908,-2.7907,-2.792,-2.7915,-2.7908,-2.7907,-2.7906,-2.7906,0,-2.7554,-2.7567,-2.7628,-2.7659,-2.7668,-2.7707,-2.7733,-2.7766,-2.7777,-2.7824,-2.7835,-2.7851,-2.7892,-2.7901,-2.7949,-2.7952,-2.8016,-2.8011,-2.8007,-2.8006,-2.8045,-2.8041,-2.817,-2.8187,-2.8078,-2.8079,-2.808,0,-2.7608,-2.7646,-2.7682,-2.7707,-2.7725,-2.7765,-2.779,-2.7797,-2.7823,-2.7859,-2.7888,-2.793,-2.7963,-2.803,-2.8045,-2.8082,-2.8078,-2.8121,-2.8083,-2.8083,-2.8078,-2.8076,-2.8079,-2.8127,-2.8129,-2.813,-2.813,0,-2.7701,-2.7706,-2.7744,-2.7784,-2.7815,-2.7846,-2.7876,-2.7896,-2.7906,-2.7936,-2.798,-2.8006,-2.8057,-2.8098,-2.8136,-2.8151,-2.8142,-2.8142,-2.8153,-2.8153,-2.8149,-2.8152,-2.8025,-2.8139,-2.8138,-2.8137,-2.8137,-2.8137,-2.7767,-2.7801,-2.7832,-2.7874,-2.7898,-2.7926,-2.7959,-2.7975,-2.8012,-2.8055,-2.8056,-2.8104,-2.8132,-2.8182,-2.82,-2.8237,-2.8223,-2.8239,-2.8243,-2.8247,-2.825,-2.8144,-2.8244,-2.8244,-2.8243,-2.8243,-2.8243,0,-2.786,-2.788,-2.7919,-2.7962,-2.7995,-2.7986,-2.8019,-2.8047,-2.809,-2.8117,-2.8151,-2.8202,-2.8242,-2.8261,-2.83,-2.8326,-2.8323,-2.8336,-2.8334,-2.8337,-2.826,-2.8247,-2.8338,-2.8338,-2.8338,-2.8338,-2.8338,-2.8338,-2.7912,-2.7969,-2.7978,-2.8047,-2.8066,-2.8114,-2.8134,-2.816,-2.8182,-2.8239,-2.8273,-2.8286,-2.8311,-2.8352,-2.8388,-2.8393,-2.8407,-2.8422,-2.8425,-2.8352,-2.8343,-2.8333,-2.8321,-2.8426,-2.8426,-2.8499,-2.8499,-2.85]}]]